This is the latest recevied weather packets stored in our database for station/object XQ6AK-15. If no packets are shown the sender has not sent any weather packets the latest 10 day(s).
| Time | Temp. | Humidity | Pressure | Rain* | Wind** | Luminosity | Snow |
|---|---|---|---|---|---|---|---|
| 1787841902 | 10.56° C | 99% | 1002.7 hPa | 3.05 mm | - | 65 W/m² | - |
| 1787841598 | 10.56° C | 99% | 1002.9 hPa | 1.27 mm | - | 78 W/m² | - |
| 1787841296 | 10.56° C | 99% | 1002.7 hPa | 0 mm | - | 103 W/m² | - |
| 1787840991 | 10.56° C | 99% | 1002.9 hPa | 1.78 mm | - | 64 W/m² | - |
| 1787840687 | 10.56° C | 99% | 1003.2 hPa | 1.78 mm | - | 67 W/m² | - |
| 1787840382 | 10.56° C | 98% | 1003.2 hPa | 0 mm | - | 58 W/m² | - |
| 1787840077 | 10.56° C | 97% | 1003.5 hPa | 0 mm | - | 54 W/m² | - |
| 1787839771 | 10.56° C | 96% | 1003.3 hPa | 0 mm | - | 71 W/m² | - |
| 1787839466 | 10.56° C | 97% | 1003.4 hPa | 0 mm | - | 163 W/m² | - |
| 1787839165 | 10.56° C | 97% | 1003.3 hPa | 0 mm | - | 146 W/m² | - |
| 1787838865 | 10.56° C | 97% | 1003.7 hPa | 0 mm | - | 149 W/m² | - |
| 1787838560 | 10.56° C | 97% | 1003.7 hPa | 0 mm | - | 146 W/m² | - |
| 1787838259 | 10.56° C | 97% | 1004 hPa | 0 mm | - | 189 W/m² | - |
| 1787837957 | 10.56° C | 97% | 1004 hPa | 0 mm | - | 134 W/m² | - |
| 1787837657 | 10.56° C | 97% | 1004 hPa | 0 mm | - | 165 W/m² | - |
| 1787837352 | 10.56° C | 96% | 1004.2 hPa | 0 mm | - | 66 W/m² | - |
| 1787837048 | 10.56° C | 97% | 1004.2 hPa | 0 mm | - | 140 W/m² | - |
| 1787836746 | 10° C | 98% | 1004.1 hPa | 0 mm | - | 119 W/m² | - |
| 1787836441 | 10° C | 99% | 1004 hPa | 0 mm | - | 142 W/m² | - |
| 1787836137 | 9.44° C | 99% | 1003.9 hPa | 0 mm | - | 81 W/m² | - |
| 1787835832 | 9.44° C | 98% | 1004.1 hPa | 0 mm | - | 62 W/m² | - |
| 1787835532 | 9.44° C | 99% | 1004 hPa | 0 mm | - | 63 W/m² | - |
| 1787835227 | 9.44° C | 99% | 1004.2 hPa | 0 mm | - | 53 W/m² | - |
| 1787834927 | 9.44° C | 99% | 1004.3 hPa | 0 mm | - | 29 W/m² | - |
| 1787834626 | 9.44° C | 99% | 1004.3 hPa | 0 mm | - | 26 W/m² | - |
* Rain latest hour (hover to see other rain measurements)
** Current wind speed in m/s (hover to see current wind gust speed)